Regional Weather Roundup
Issued by NWS

Home | Current Version | Previous Version | Graphics & Text | Print | Product List | Glossary On
Versions: 1 2 3 4 5 6 7 8 9 10 11 12 13 14 15 16 17 18 19 20 21 22 23 24 25 26 27 28 29 30 31 32 33 34 35 36 37 38 39 40 41 42 43 44 45 46 47 48 49 50
000
ASUS43 KLOT 050409
RWRIL

ILLINOIS REGIONAL WEATHER ROUNDUP
NATIONAL WEATHER SERVICE CHICAGO/ROMEOVILLE IL
1100 PM CDT FRI SEP 04 2015

NOTE: "FAIR" INDICATES FEW OR NO CLOUDS BELOW 12,000 FEET WITH NO
SIGNIFICANT WEATHER AND/OR OBSTRUCTIONS TO VISIBILITY.

* THESE STATIONS ARE NOT UNDER NWS QUALITY CONTROL. THEY ALSO MAY NOT
  REPORT WEATHER SUCH AS PRECIPITATION OR FOG.

ILZ001-002-007-009-015-016-024-050500-
NORTHWEST ILLINOIS

CITY           SKY/WX    TMP DP  RH WIND       PRES   REMARKS
MOLINE         PTCLDY    74  69  85 SE3       30.01R
STERLING*      CLEAR     75  72  88 E6        30.00S
SAVANNA*       CLEAR     75  71  86 CALM      30.01S
$$

ILZ003-004-008-010-011-017-018-050500-
NORTH CENTRAL ILLINOIS

CITY           SKY/WX    TMP DP  RH WIND       PRES   REMARKS
ROCKFORD       PTCLDY    72  66  81 E6        30.05S
FREEPORT*      PTCLDY    73  69  88 E8        30.05S
ROCHELLE*      MOCLDY    71  68  89 SE6       30.05S
DE KALB*       MOCLDY    70  67  92 E7        30.07R
PERU*          MOCLDY    79  67  67 CALM      30.04R HX  81
$$

ILZ005-006-012>014-019>023-050500-
NORTHEAST ILLINOIS

CITY           SKY/WX    TMP DP  RH WIND       PRES   REMARKS
CHICAGO-OHARE  PTCLDY    72  67  84 E6        30.06S
CHICAGO-MIDWAY CLOUDY    75  66  73 E7        30.06S
AURORA         MOCLDY    72  67  84 SE8       30.07R
LANSING*       CLEAR     69  68  96 CALM      30.07R FOG
JOLIET*        CLEAR     73  69  86 CALM      30.06F
WAUKEGAN       PTCLDY    66  66 100 CALM      30.06S
DUPAGE AIRPORT CLEAR     71  66  84 E5        30.05F
KANKAKEE*      CLEAR     70  68  93 CALM      30.06F
WHEELING       NOT AVBL
MORRIS*        CLEAR     72  69  90 E6        30.04F
ROMEOVILLE*    CLEAR     70  65  85 E3        30.06S
NORTHERLY ISL    N/A     71  68  90 NE2         N/A
$$

LMZ740>746-050500-
SOUTHERN LAKE MICHIGAN

STATION/POSITION SKY/WX   TEMP    WIND        PRES    VSBY  WAVE
                          AIR SEA DIR/SP/G                  HT/PER
                          (F)     (DEG/KT/KT) (MB)    (MI)  (FT/S)
SOUTHERN BUOY              69 71  160/  2/  4 1017.6F
WILMETTE HARBOR            71 71  280/  4/  6   N/A           1/ 3
HARRISON CRIB              71      90/  5/  6   N/A
BURNHAM HARBOR             71     100/  2/  4   N/A
CALUMET HARBOR             72      60/  4/  5   N/A
BURNS HARBOR               72      80/  5/  7 1018.3R
MICHIGAN CITY              71      40/  4/  5   N/A
MICHIGAN CITY 6N           72 74  160/  6/ 16   N/A           1/ 4
ST. JOSEPH                 71 75   90/  6/  8   N/A           1
$$

ILZ025>027-034>036-040-047-049-050-058-095>099-050500-
WEST-CENTRAL ILLINOIS

CITY           SKY/WX    TMP DP  RH WIND       PRES   REMARKS
QUINCY         CLEAR     78  70  76 SE6       30.02S HX  80
GALESBURG*     CLEAR     74  68  81 CALM      30.03S
MACOMB*        CLEAR     74  68  80 S6        30.04S
JACKSONVILLE*  CLEAR     77  70  79 S3        30.03S
PITTSFIELD*    CLEAR     76  71  83 CALM      30.04S
$$

ILZ028>032-037-038-041>044-048-051>054-059>061-050500-
CENTRAL ILLINOIS

CITY           SKY/WX    TMP DP  RH WIND       PRES   REMARKS
PONTIAC        CLEAR     73  69  87 SE5       30.06R
BLOOMINGTON    PTCLDY    73  68  84 S12       30.07R
DECATUR        PTCLDY    76  60  57 SE16      30.07F
PEORIA         PTCLDY    81  67  62 SE9       30.03R HX  83
LACON*         CLEAR     78  69  73 SW3       30.02R HX  80
LINCOLN*       CLEAR     77  67  72 SE8       30.05R
SPRINGFIELD    CLEAR     77  69  76 S5        30.05R
TAYLORVILLE    MOCLDY    75  68  78 E15       30.08R
$$

ILZ033-039-045-046-055>057-062-063-050500-
EAST-CENTRAL ILLINOIS

CITY           SKY/WX    TMP DP  RH WIND       PRES   REMARKS
CHAMPAIGN      MOCLDY    69  64  84 SE6       30.07S
RANTOUL*       MOCLDY    72  68  88 S5        30.07F
MATTOON        LGT RAIN  71  66  84 NE10      30.09F
PARIS*         CLOUDY    71  69  92 W9        30.10R
$$

ILZ079-100>102-050500-
SOUTHWEST ILLINOIS

CITY           SKY/WX    TMP DP  RH WIND       PRES   REMARKS
ALTON          CLEAR     73  70  93 CALM      30.04R
BELLEVILLE     CLEAR     75  74  99 CALM      30.04R FOG
CAHOKIA*       CLEAR     77  70  79 CALM      30.03R
SPARTA*        FAIR      76  72  87 CALM      30.06R
$$

ILZ064>066-069>071-074>076-080>082-084>086-088>090-092>094-050500-
SOUTH-CENTRAL ILLINOIS

CITY           SKY/WX    TMP DP  RH WIND       PRES   REMARKS
CARBONDALE     CLEAR     72  69  90 CALM      30.05R
CAIRO*         CLEAR     70  70 100 CALM      30.04S FOG
EFFINGHAM*     PTCLDY    76  63  63 NE8G17    30.11R
MARION         CLEAR     75  72  88 CALM      30.06R
MT. VERNON     CLEAR     72  66  83 CALM      30.07R
CENTRALIA*     CLEAR     73  72  98 CALM      30.05R
SALEM*         CLEAR     73  71  91 CALM      30.06R
METROPOLIS*    CLEAR     71  71 100 CALM      30.06R FOG
$$

ILZ067-068-072-073-078-083-087-091-050500-
SOUTHEAST ILLINOIS

CITY           SKY/WX    TMP DP  RH WIND       PRES   REMARKS
LAWRENCEVILLE  MOCLDY    76  71  85 CALM      30.06S
FLORA*         MOCLDY    73  69  86 CALM      30.07R
FAIRFIELD*     CLEAR     72  70  92 CALM      30.05R
HARRISBURG*    CLEAR     71  69  93 CALM      30.06S
ROBINSON*      CLOUDY    75  67  76 N5        30.09R
CARMI*         CLEAR     69  68  97 CALM      30.05S
$$

ABBREVIATIONS USED IN REMARKS
   TC - TEMPERATURE IN CELSIUS
  WCI - WIND CHILL INDEX
   HX - HEAT INDEX
  VSB - VISIBILITY
$$




USA.gov is the U.S. government's official web portal to all federal, state and local government web resources and services.